TimeMDT,TemperatureF,Dew PointF,Humidity,Sea Level PressureIn,VisibilityMPH,Wind Direction,Wind SpeedMPH,Gust SpeedMPH,PrecipitationIn,Events,Conditions,WindDirDegrees,DateUTC
12:53 AM,52.0,34.0,50,29.73,10.0,South,8.1,-,N/A,,Clear,190,2013-05-07 06:53:00
1:53 AM,50.0,35.1,57,29.73,10.0,SSE,11.5,-,N/A,,Partly Cloudy,160,2013-05-07 07:53:00
2:53 AM,51.1,33.1,50,29.72,10.0,South,10.4,-,N/A,,Clear,170,2013-05-07 08:53:00
3:53 AM,55.9,36.0,47,29.70,10.0,South,15.0,-,N/A,,Clear,170,2013-05-07 09:53:00
4:53 AM,55.9,37.9,51,29.70,10.0,SSE,17.3,-,N/A,,Clear,160,2013-05-07 10:53:00
5:53 AM,57.0,39.0,51,29.69,10.0,SSE,19.6,-,N/A,,Mostly Cloudy,160,2013-05-07 11:53:00
6:53 AM,57.0,39.9,53,29.73,10.0,SSE,18.4,26.5,N/A,,Overcast,160,2013-05-07 12:53:00
7:53 AM,55.9,39.9,55,29.78,10.0,ESE,8.1,-,0.00,Rain,Light Rain,120,2013-05-07 13:53:00
8:53 AM,57.0,44.1,62,29.79,10.0,SE,9.2,-,0.00,,Mostly Cloudy,130,2013-05-07 14:53:00
9:53 AM,57.0,43.0,59,29.82,10.0,NE,6.9,-,N/A,,Overcast,40,2013-05-07 15:53:00
10:53 AM,55.0,45.0,69,29.83,10.0,SSE,8.1,-,0.00,,Overcast,150,2013-05-07 16:53:00
11:53 AM,57.0,41.0,55,29.85,10.0,SSE,15.0,-,N/A,,Overcast,160,2013-05-07 17:53:00
12:53 PM,61.0,42.1,50,29.83,10.0,SSE,11.5,18.4,N/A,,Partly Cloudy,160,2013-05-07 18:53:00
1:53 PM,61.0,39.9,46,29.83,10.0,South,8.1,-,N/A,,Overcast,170,2013-05-07 19:53:00
2:53 PM,61.0,46.0,58,29.83,10.0,East,13.8,18.4,0.02,,Mostly Cloudy,100,2013-05-07 20:53:00
3:53 PM,64.0,41.0,43,29.79,10.0,East,4.6,-,N/A,,Scattered Clouds,90,2013-05-07 21:53:00
4:53 PM,63.0,42.1,46,29.79,10.0,ENE,6.9,-,N/A,,Clear,70,2013-05-07 22:53:00
5:53 PM,62.1,43.0,50,29.78,10.0,ENE,8.1,-,N/A,,Partly Cloudy,70,2013-05-07 23:53:00
6:53 PM,63.0,42.1,46,29.80,10.0,NE,8.1,-,N/A,,Partly Cloudy,50,2013-05-08 00:53:00
7:53 PM,57.9,45.0,62,29.82,10.0,East,8.1,-,N/A,,Clear,80,2013-05-08 01:53:00
8:53 PM,55.0,43.0,64,29.83,10.0,ESE,8.1,-,N/A,,Clear,120,2013-05-08 02:53:00
9:53 PM,48.9,41.0,74,29.85,10.0,ESE,8.1,-,N/A,,Clear,120,2013-05-08 03:53:00
10:53 PM,51.1,42.1,71,29.86,10.0,Variable,3.5,-,N/A,,Mostly Cloudy,0,2013-05-08 04:53:00
11:53 PM,48.0,42.1,80,29.88,10.0,NE,3.5,-,N/A,,Scattered Clouds,50,2013-05-08 05:53:00